Frankfort, MI

10:23 PM EST on December 11, 2019 (GMT -0500)
Frankfort

Weather History for KFKS - October, 2019

Change the Weather History Date:

Saturday, October 5, 2019

  Actual Average (WUND) Record (WUND)
Temperature  
Mean Temperature 49 °F -  
Max Temperature 58 °F - - (-1)
Min Temperature 40 °F - - (-1)
Degree Days  
Heating Degree Days 16    
Moisture  
Dew Point 42 °F    
Average Humidity 73    
Maximum Humidity 85    
Minimum Humidity 58    
Precipitation  
Precipitation 0.00 in - - ()
Sea Level Pressure  
Sea Level Pressure 30.13 in    
Wind  
Wind Speed 4 mph (SE)    
Max Wind Speed 18 mph    
Max Gust Speed 25 mph    
Visibility 10 miles    
Events Rain    
Averages and records for this station are not official NWS values.
T = Trace of Precipitation, MM = Missing Value Source: NWS Daily Summary

Daily Weather History Graph

Daily Weather History Graph

Search for Another Location

Airport or City:

Astronomy

Oct. 05, 2019 Rise Set
Actual Time 7:47 AM EDT 7:18 PM EDT
Civil Twilight 7:18 AM EDT 7:47 PM EDT
Nautical Twilight 6:44 AM EDT 8:21 PM EDT
Astronomical Twilight 6:10 AM EDT 8:55 PM EDT
Moon 3:25 PM EDT (10/5) No Moon Set
Length of Visible Light 12h 29m
Length of Day
11h 31m
Waxing Crescent, 50% of the Moon is Illuminated
Oct 5
Waxing Crescent
Oct 5
First Quarter
Oct 13
Full
Oct 21
Last Quarter
Oct 27
New

Hourly Weather History & Observations

Time (EDT) Temp. Windchill Dew Point Humidity Pressure Visibility Wind Dir Wind Speed Gust Speed Precip Events Conditions
12:39 AM 44.2 °F - 38.8 °F 81% 30.40 in 10.0 mi Calm Calm - N/A   Clear
12:57 AM 44.6 °F - 39.4 °F 82% 30.39 in 10.0 mi Calm Calm - N/A   Clear
1:15 AM 43.3 °F - 38.7 °F 84% 30.38 in 10.0 mi Calm Calm - N/A   Clear
1:35 AM 43.0 °F - 38.5 °F 84% 30.38 in 10.0 mi Calm Calm - N/A   Clear
1:36 AM 43.0 °F - 38.5 °F 84% 30.38 in 10.0 mi Calm Calm - N/A   Clear
1:59 AM 41.9 °F - 37.4 °F 84% 30.38 in 10.0 mi Calm Calm - N/A   Clear
2:17 AM 42.1 °F - 37.6 °F 84% 30.38 in 10.0 mi Calm Calm - N/A   Clear
2:35 AM 40.8 °F - 36.5 °F 85% 30.38 in 10.0 mi Calm Calm - N/A   Clear
2:55 AM 40.3 °F - 35.8 °F 84% 30.37 in 10.0 mi Calm Calm - N/A   Clear
2:56 AM 40.1 °F - 35.8 °F 85% 30.37 in 10.0 mi Calm Calm - N/A   Clear
3:15 AM 40.6 °F - 36.3 °F 85% 30.37 in 10.0 mi Calm Calm - N/A   Clear
3:38 AM 41.2 °F - 36.5 °F 83% 30.37 in 10.0 mi Calm Calm - N/A   Clear
3:55 AM 42.3 °F 40.5 °F 37.0 °F 82% 30.36 in 10.0 mi SE 3.5 mph - N/A   Clear
4:15 AM 41.2 °F - 36.0 °F 82% 30.36 in 10.0 mi Calm Calm - N/A   Scattered Clouds
4:16 AM 41.4 °F - 36.1 °F 82% 30.36 in 10.0 mi Calm Calm - N/A   Scattered Clouds
4:35 AM 41.2 °F - 35.2 °F 79% 30.36 in 10.0 mi Calm Calm - N/A   Scattered Clouds
4:59 AM 40.3 °F - 34.9 °F 81% 30.35 in 10.0 mi Calm Calm - N/A   Clear
5:17 AM 41.0 °F - 36.0 °F 82% 30.34 in 10.0 mi Calm Calm - N/A   Clear
5:35 AM 41.0 °F - 35.8 °F 82% 30.33 in 10.0 mi Calm Calm - N/A   Clear
5:36 AM 41.0 °F - 35.8 °F 82% 30.33 in 10.0 mi Calm Calm - N/A   Clear
5:55 AM 41.7 °F 38.0 °F 36.3 °F 81% 30.33 in 10.0 mi SE 5.8 mph - N/A   Clear
6:15 AM 44.2 °F 42.7 °F 37.2 °F 76% 30.32 in 10.0 mi ESE 3.5 mph - N/A   Mostly Cloudy
6:38 AM 43.7 °F 41.1 °F 37.2 °F 78% 30.31 in 10.0 mi South 4.6 mph - N/A   Overcast
6:55 AM 43.2 °F - 37.4 °F 80% 30.31 in 10.0 mi Calm Calm - N/A   Overcast
7:15 AM 43.3 °F - 36.7 °F 77% 30.30 in 10.0 mi Calm Calm - N/A   Mostly Cloudy
7:16 AM 43.2 °F - 36.5 °F 77% 30.30 in 10.0 mi Calm Calm - N/A   Scattered Clouds
7:35 AM 41.9 °F - 36.1 °F 80% 30.28 in 10.0 mi Calm Calm - N/A   Clear
7:59 AM 41.9 °F - 36.1 °F 80% 30.28 in 10.0 mi Calm Calm - N/A   Clear
8:17 AM 42.3 °F - 36.9 °F 81% 30.28 in 10.0 mi Calm Calm - N/A   Clear
8:35 AM 43.0 °F 41.3 °F 37.4 °F 81% 30.28 in 10.0 mi SE 3.5 mph - N/A   Scattered Clouds
8:36 AM 43.0 °F 41.3 °F 37.4 °F 81% 30.28 in 10.0 mi SE 3.5 mph - N/A   Mostly Cloudy
8:55 AM 44.1 °F 42.5 °F 38.1 °F 80% 30.28 in 10.0 mi SSE 3.5 mph - N/A   Overcast
9:15 AM 45.7 °F 43.4 °F 38.3 °F 75% 30.26 in 10.0 mi SE 4.6 mph - N/A   Overcast
9:38 AM 45.7 °F 43.4 °F 38.1 °F 75% 30.26 in 10.0 mi SE 4.6 mph - N/A   Scattered Clouds
9:56 AM 46.2 °F 42.7 °F 38.3 °F 74% 30.24 in 10.0 mi SE 6.9 mph - N/A   Clear
10:15 AM 46.9 °F - 39.4 °F 75% 30.23 in 10.0 mi SE 5.8 mph - N/A   Clear
10:35 AM 48.7 °F - 40.3 °F 73% 30.22 in 10.0 mi SE 6.9 mph - N/A   Clear
10:59 AM 50.9 °F - 41.0 °F 69% 30.21 in 10.0 mi SE 8.1 mph - N/A   Clear
11:17 AM 52.0 °F - 41.4 °F 67% 30.20 in 10.0 mi SE 8.1 mph - N/A   Clear
11:35 AM 52.9 °F - 41.7 °F 66% 30.19 in 10.0 mi SE 6.9 mph - N/A   Clear
11:36 AM 53.1 °F - 41.9 °F 66% 30.19 in 10.0 mi SE 6.9 mph - N/A   Clear
11:55 AM 54.3 °F - 41.9 °F 63% 30.18 in 10.0 mi SSE 10.4 mph - N/A   Clear
11:56 AM 54.5 °F - 41.7 °F 62% 30.18 in 10.0 mi SSE 10.4 mph - N/A   Clear
12:15 PM 56.8 °F - 42.1 °F 58% 30.17 in 10.0 mi SE 12.7 mph 19.6 mph N/A   Clear
12:38 PM 57.4 °F - 42.6 °F 58% 30.15 in 10.0 mi SE 13.8 mph 18.4 mph N/A   Clear
12:56 PM 57.2 °F - 42.6 °F 58% 30.15 in 10.0 mi SE 11.5 mph - N/A   Clear
1:15 PM 56.7 °F - 42.3 °F 59% 30.13 in 10.0 mi SE 11.5 mph - N/A   Scattered Clouds
1:16 PM 56.7 °F - 42.3 °F 59% 30.13 in 10.0 mi SE 10.4 mph - N/A   Scattered Clouds
1:35 PM 57.2 °F - 43.0 °F 59% 30.12 in 10.0 mi SE 8.1 mph - N/A   Mostly Cloudy
1:59 PM 57.2 °F - 43.7 °F 61% 30.11 in 10.0 mi ESE 5.8 mph - N/A   Overcast
2:17 PM 57.2 °F - 43.5 °F 60% 30.10 in 10.0 mi SSE 11.5 mph - N/A   Overcast
2:35 PM 57.4 °F - 42.8 °F 58% 30.10 in 10.0 mi SSE 6.9 mph - N/A   Overcast
2:36 PM 57.4 °F - 42.8 °F 58% 30.10 in 10.0 mi SSE 5.8 mph - N/A   Overcast
2:55 PM 57.6 °F - 42.8 °F 58% 30.09 in 10.0 mi SE 4.6 mph - N/A   Overcast
2:56 PM 57.6 °F - 42.8 °F 58% 30.09 in 10.0 mi SE 4.6 mph - N/A   Overcast
3:15 PM 57.7 °F - 43.2 °F 58% 30.07 in 10.0 mi SSE 8.1 mph - N/A   Overcast
3:38 PM 58.3 °F - 43.7 °F 58% 30.06 in 10.0 mi SSE 5.8 mph - N/A   Overcast
3:56 PM 58.5 °F - 43.9 °F 58% 30.06 in 10.0 mi South 8.1 mph - N/A   Overcast
4:15 PM 58.5 °F - 43.7 °F 58% 30.05 in 10.0 mi SSE 6.9 mph - N/A   Overcast
4:16 PM 58.5 °F - 43.7 °F 58% 30.05 in 10.0 mi South 4.6 mph - N/A   Overcast
4:35 PM 58.5 °F - 44.2 °F 59% 30.04 in 10.0 mi South 5.8 mph - N/A   Overcast
4:36 PM 58.3 °F - 44.4 °F 60% 30.04 in 10.0 mi South 6.9 mph - N/A   Overcast
4:59 PM 58.3 °F - 44.8 °F 61% 29.99 in 10.0 mi ESE 9.2 mph - N/A   Overcast
5:17 PM 57.7 °F - 45.0 °F 62% 30.00 in 10.0 mi SE 10.4 mph - N/A   Overcast
5:35 PM 57.2 °F - 46.2 °F 67% 30.00 in 10.0 mi SSE 6.9 mph - N/A Rain Light Rain
5:36 PM 57.2 °F - 46.2 °F 67% 29.99 in 10.0 mi SSE 6.9 mph - N/A Rain Light Rain
5:55 PM 55.8 °F - 46.6 °F 71% 29.98 in 10.0 mi SE 6.9 mph - N/A   Overcast
6:15 PM 55.4 °F - 46.8 °F 73% 29.97 in 10.0 mi SSE 8.1 mph - N/A Rain Light Rain
6:38 PM 54.9 °F - 46.4 °F 73% 29.90 in 10.0 mi SE 15.0 mph 23.0 mph N/A Rain Light Rain
6:55 PM 54.5 °F - 46.4 °F 74% 29.91 in 10.0 mi SE 15.0 mph 19.6 mph N/A Rain Light Rain
7:15 PM 54.1 °F - 46.4 °F 75% 29.89 in 10.0 mi SE 15.0 mph 20.7 mph N/A Rain Light Rain
7:35 PM 53.8 °F - 46.6 °F 77% 29.90 in 10.0 mi SSE 8.1 mph - N/A Rain Rain
7:36 PM 53.8 °F - 46.6 °F 77% 29.90 in 10.0 mi SSE 6.9 mph - N/A Rain Rain
7:59 PM 54.0 °F - 46.8 °F 77% 29.90 in 10.0 mi SE 10.4 mph 16.1 mph N/A   Light Drizzle
8:35 PM 54.0 °F - 46.8 °F 77% 29.88 in 10.0 mi SE 11.5 mph - N/A   Scattered Clouds
8:55 PM 54.3 °F - 46.6 °F 75% 29.87 in 10.0 mi SE 12.7 mph 19.6 mph N/A   Mostly Cloudy
8:56 PM 54.3 °F - 46.6 °F 75% 29.87 in 10.0 mi SE 12.7 mph 19.6 mph N/A   Mostly Cloudy
9:15 PM 54.5 °F - 46.8 °F 75% 29.86 in 10.0 mi SSE 11.5 mph 19.6 mph N/A   Overcast
9:20 PM 54.5 °F - 46.8 °F 75% 29.85 in 10.0 mi SSE 10.4 mph 20.7 mph N/A   Overcast
9:38 PM 54.7 °F - 46.9 °F 75% 29.84 in 10.0 mi SSE 12.7 mph 20.7 mph N/A   Overcast
9:56 PM 55.4 °F - 46.9 °F 73% 29.83 in 10.0 mi SSE 18.4 mph 25.3 mph N/A   Overcast
10:15 PM 55.0 °F - 47.7 °F 76% 29.86 in 10.0 mi South 5.8 mph 17.3 mph N/A   Drizzle
10:16 PM 55.0 °F - 47.7 °F 76% 29.86 in 10.0 mi SSE 8.1 mph 17.3 mph N/A   Drizzle
10:35 PM 55.6 °F - 47.8 °F 75% 29.86 in 10.0 mi South 10.4 mph 18.4 mph N/A   Overcast
10:36 PM 55.8 °F - 47.8 °F 75% 29.86 in 10.0 mi South 10.4 mph 18.4 mph N/A   Overcast
10:59 PM 56.1 °F - 47.8 °F 74% 29.85 in 10.0 mi South 10.4 mph 16.1 mph N/A   Overcast
11:17 PM 55.4 °F - 48.9 °F 79% 29.85 in 3.0 mi SSE 9.2 mph 16.1 mph N/A Rain Rain
11:35 PM 55.0 °F - 49.6 °F 82% 29.84 in 5.0 mi South 11.5 mph 16.1 mph N/A Rain Light Rain
11:55 PM 55.4 °F - 50.0 °F 82% 29.83 in 5.0 mi South 8.1 mph 17.3 mph N/A   Haze
11:56 PM 55.4 °F - 50.0 °F 82% 29.83 in 5.0 mi South 9.2 mph 17.3 mph N/A   Haze